owner,sensor,date,latitude,longitude,vertical_datum,direction_of_sea_water_velocity,sea_water_speed,upward_sea_water_velocity,qcFlag 
TABS,ioos:station:wmo:42047:1,2014-07-01T00:00:00Z,27.8966,-93.5973,2.0,27.61340864,33.24695024,-99999.0,'11111222,11111222,99999999' 
TABS,ioos:station:wmo:42047:1,2014-07-01T00:30:00Z,27.8966,-93.5973,2.0,31.36133072,35.3552839,-99999.0,'11111222,11111222,99999999' 
TABS,ioos:station:wmo:42047:1,2014-07-01T01:00:00Z,27.8966,-93.5973,2.0,39.00687252,30.94952181,-99999.0,'11111222,11111222,99999999' 
TABS,ioos:station:wmo:42047:1,2014-07-01T01:30:00Z,27.8966,-93.5973,2.0,47.14535602,26.06808393,-99999.0,'11111222,11111222,99999999' 
TABS,ioos:station:wmo:42047:1,2014-07-01T02:00:00Z,27.8966,-93.5973,2.0,52.59377417,27.98522646,-99999.0,'11111222,11111222,99999999' 
TABS,ioos:station:wmo:42047:1,2014-07-01T02:30:00Z,27.8966,-93.5973,2.0,58.03395614,27.84191085,-99999.0,'11111222,11111222,99999999' 
TABS,ioos:station:wmo:42047:1,2014-07-01T03:00:00Z,27.8966,-93.5973,2.0,61.88841387,26.67706506,-99999.0,'11111222,11111222,99999999' 
TABS,ioos:station:wmo:42047:1,2014-07-01T03:30:00Z,27.8966,-93.5973,2.0,66.03138586,28.23474632,-99999.0,'11111222,11111222,99999999' 
TABS,ioos:station:wmo:42047:1,2014-07-01T04:00:00Z,27.8966,-93.5973,2.0,130.4701227,20.86117207,-99999.0,'11111222,11111222,99999999' 
TABS,ioos:station:wmo:42047:1,2014-07-01T04:30:00Z,27.8966,-93.5973,2.0,130.0884924,16.84857858,-99999.0,'11111222,11111222,99999999' 
TABS,ioos:station:wmo:42047:1,2014-07-01T05:00:00Z,27.8966,-93.5973,2.0,143.5294364,16.63840437,-99999.0,'11111222,11111222,99999999' 
TABS,ioos:station:wmo:42047:1,2014-07-01T05:30:00Z,27.8966,-93.5973,2.0,156.6650558,13.80953656,-99999.0,'11111222,11111222,99999999' 
TABS,ioos:station:wmo:42047:1,2014-07-01T06:00:00Z,27.8966,-93.5973,2.0,133.6352151,12.76689861,-99999.0,'11111222,11111222,99999999' 
TABS,ioos:station:wmo:42047:1,2014-07-01T06:30:00Z,27.8966,-93.5973,2.0,131.7015143,11.18374267,-99999.0,'11111222,11111222,99999999' 
TABS,ioos:station:wmo:42047:1,2014-07-01T07:00:00Z,27.8966,-93.5973,2.0,114.5867347,10.6231822,-99999.0,'11111222,11111222,99999999' 
TABS,ioos:station:wmo:42047:1,2014-07-01T07:30:00Z,27.8966,-93.5973,2.0,117.6276869,10.60973138,-99999.0,'11111222,11111222,99999999' 
TABS,ioos:station:wmo:42047:1,2014-07-01T08:00:00Z,27.8966,-93.5973,2.0,127.0175682,10.08203353,-99999.0,'11111222,11111222,99999999' 
TABS,ioos:station:wmo:42047:1,2014-07-01T08:30:00Z,27.8966,-93.5973,2.0,118.928353,6.615444052,-99999.0,'11133222,11111222,99999999' 
TABS,ioos:station:wmo:42047:1,2014-07-01T09:00:00Z,27.8966,-93.5973,2.0,134.819152,6.724618948,-99999.0,'11133222,11111222,99999999' 
TABS,ioos:station:wmo:42047:1,2014-07-01T09:30:00Z,27.8966,-93.5973,2.0,135.1650114,7.361012159,-99999.0,'11133222,11111222,99999999' 
TABS,ioos:station:wmo:42047:1,2014-07-01T10:00:00Z,27.8966,-93.5973,2.0,151.1430925,9.282634324,-99999.0,'11133222,11111222,99999999' 
TABS,ioos:station:wmo:42047:1,2014-07-01T10:30:00Z,27.8966,-93.5973,2.0,147.8979311,8.806474891,-99999.0,'11133222,11111222,99999999' 
TABS,ioos:station:wmo:42047:1,2014-07-01T11:00:00Z,27.8966,-93.5973,2.0,121.9139486,4.653396609,-99999.0,'11133222,11111222,99999999' 
TABS,ioos:station:wmo:42047:1,2014-07-01T11:30:00Z,27.8966,-93.5973,2.0,149.1113953,11.74594824,-99999.0,'11111222,11111222,99999999' 
TABS,ioos:station:wmo:42047:1,2014-07-01T12:00:00Z,27.8966,-93.5973,2.0,147.9047406,16.24236744,-99999.0,'11111222,11111222,99999999' 
TABS,ioos:station:wmo:42047:1,2014-07-01T12:30:00Z,27.8966,-93.5973,2.0,148.1805371,18.60624089,-99999.0,'11111222,11111222,99999999' 
TABS,ioos:station:wmo:42047:1,2014-07-01T13:00:00Z,27.8966,-93.5973,2.0,154.9515779,18.75376496,-99999.0,'11111222,11111222,99999999' 
TABS,ioos:station:wmo:42047:1,2014-07-01T13:30:00Z,27.8966,-93.5973,2.0,165.7139549,21.15415798,-99999.0,'11111222,11111222,99999999' 
TABS,ioos:station:wmo:42047:1,2014-07-01T14:00:00Z,27.8966,-93.5973,2.0,175.9550507,21.97473322,-99999.0,'11111222,11111222,99999999' 
TABS,ioos:station:wmo:42047:1,2014-07-01T14:30:00Z,27.8966,-93.5973,2.0,132.2605655,23.67270158,-99999.0,'11111222,11111222,99999999' 
TABS,ioos:station:wmo:42047:1,2014-07-01T15:00:00Z,27.8966,-93.5973,2.0,205.5136003,25.8398781,-99999.0,'11111222,11111222,99999999' 
TABS,ioos:station:wmo:42047:1,2014-07-01T15:30:00Z,27.8966,-93.5973,2.0,194.3882467,24.0648395,-99999.0,'11111222,11111222,99999999' 
TABS,ioos:station:wmo:42047:1,2014-07-01T16:00:00Z,27.8966,-93.5973,2.0,203.0624336,26.57387063,-99999.0,'11111222,11111222,99999999' 
TABS,ioos:station:wmo:42047:1,2014-07-01T16:30:00Z,27.8966,-93.5973,2.0,216.3384363,23.94702904,-99999.0,'11111222,11111222,99999999' 
TABS,ioos:station:wmo:42047:1,2014-07-01T17:00:00Z,27.8966,-93.5973,2.0,215.3368031,22.58007972,-99999.0,'11111222,11111222,99999999' 
TABS,ioos:station:wmo:42047:1,2014-07-01T17:30:00Z,27.8966,-93.5973,2.0,217.0025793,18.95805106,-99999.0,'11111222,11111222,99999999' 
TABS,ioos:station:wmo:42047:1,2014-07-01T18:00:00Z,27.8966,-93.5973,2.0,230.0416399,24.53963529,-99999.0,'11111222,11111222,99999999' 
TABS,ioos:station:wmo:42047:1,2014-07-01T18:30:00Z,27.8966,-93.5973,2.0,230.3002338,22.80980929,-99999.0,'11111222,11111222,99999999' 
TABS,ioos:station:wmo:42047:1,2014-07-01T19:00:00Z,27.8966,-93.5973,2.0,244.2817837,26.61659069,-99999.0,'11111222,11111222,99999999' 
TABS,ioos:station:wmo:42047:1,2014-07-01T19:30:00Z,27.8966,-93.5973,2.0,242.4515917,23.20038362,-99999.0,'11111222,11111222,99999999' 
TABS,ioos:station:wmo:42047:1,2014-07-01T20:00:00Z,27.8966,-93.5973,2.0,244.3155352,25.88778283,-99999.0,'11111222,11111222,99999999' 
TABS,ioos:station:wmo:42047:1,2014-07-01T20:30:00Z,27.8966,-93.5973,2.0,251.4713464,25.23817149,-99999.0,'11111222,11111222,99999999' 
TABS,ioos:station:wmo:42047:1,2014-07-01T21:00:00Z,27.8966,-93.5973,2.0,264.9480439,22.1460177,-99999.0,'11111222,11111222,99999999' 
TABS,ioos:station:wmo:42047:1,2014-07-01T21:30:00Z,27.8966,-93.5973,2.0,268.7384735,21.35517268,-99999.0,'11111222,11111222,99999999' 
TABS,ioos:station:wmo:42047:1,2014-07-01T22:00:00Z,27.8966,-93.5973,2.0,270.8573432,23.40261737,-99999.0,'11111222,11111222,99999999' 
TABS,ioos:station:wmo:42047:1,2014-07-01T22:30:00Z,27.8966,-93.5973,2.0,271.7853355,21.510437,-99999.0,'11111222,11111222,99999999' 
TABS,ioos:station:wmo:42047:1,2014-07-01T23:00:00Z,27.8966,-93.5973,2.0,281.4679104,24.24396832,-99999.0,'11111222,11111222,99999999' 
TABS,ioos:station:wmo:42047:1,2014-07-01T23:30:00Z,27.8966,-93.5973,2.0,287.4961379,22.18635842,-99999.0,'11111222,11111222,99999999' 
TABS,ioos:station:wmo:42047:1,2014-07-02T00:00:00Z,27.8966,-93.5973,2.0,290.879633,22.6150503,-99999.0,'11111222,11111222,99999999' 
TABS,ioos:station:wmo:42047:1,2014-07-02T00:30:00Z,27.8966,-93.5973,2.0,291.8675725,21.0225831,-99999.0,'11111222,11111222,99999999' 
TABS,ioos:station:wmo:42047:1,2014-07-02T01:00:00Z,27.8966,-93.5973,2.0,291.4214246,20.69991546,-99999.0,'11111222,11111222,99999999' 
TABS,ioos:station:wmo:42047:1,2014-07-02T01:30:00Z,27.8966,-93.5973,2.0,286.8650407,15.92488618,-99999.0,'11111222,11111222,99999999' 
TABS,ioos:station:wmo:42047:1,2014-07-02T02:00:00Z,27.8966,-93.5973,2.0,291.1626564,16.81390199,-99999.0,'11111222,11111222,99999999' 
TABS,ioos:station:wmo:42047:1,2014-07-02T02:30:00Z,27.8966,-93.5973,2.0,302.8498262,19.28345405,-99999.0,'11111222,11111222,99999999' 
TABS,ioos:station:wmo:42047:1,2014-07-02T03:00:00Z,27.8966,-93.5973,2.0,308.0819455,18.72618755,-99999.0,'11111222,11111222,99999999' 
TABS,ioos:station:wmo:42047:1,2014-07-02T03:30:00Z,27.8966,-93.5973,2.0,312.3626671,17.82383236,-99999.0,'11111222,11111222,99999999' 
TABS,ioos:station:wmo:42047:1,2014-07-02T04:00:00Z,27.8966,-93.5973,2.0,321.6046809,18.62860435,-99999.0,'11111222,11111222,99999999' 
TABS,ioos:station:wmo:42047:1,2014-07-02T04:30:00Z,27.8966,-93.5973,2.0,329.5473209,23.08462692,-99999.0,'11111222,11111222,99999999' 
TABS,ioos:station:wmo:42047:1,2014-07-02T05:00:00Z,27.8966,-93.5973,2.0,324.5438944,22.94498202,-99999.0,'11111222,11111222,99999999' 
TABS,ioos:station:wmo:42047:1,2014-07-02T05:30:00Z,27.8966,-93.5973,2.0,324.2838468,19.37392578,-99999.0,'11111222,11111222,99999999' 
TABS,ioos:station:wmo:42047:1,2014-07-02T06:00:00Z,27.8966,-93.5973,2.0,330.9209736,22.52994896,-99999.0,'11111222,11111222,99999999' 
TABS,ioos:station:wmo:42047:1,2014-07-02T06:30:00Z,27.8966,-93.5973,2.0,326.8115543,23.45639572,-99999.0,'11111222,11111222,99999999' 
TABS,ioos:station:wmo:42047:1,2014-07-02T07:00:00Z,27.8966,-93.5973,2.0,330.2590981,19.21049973,-99999.0,'11111222,11111222,99999999' 
TABS,ioos:station:wmo:42047:1,2014-07-02T07:30:00Z,27.8966,-93.5973,2.0,337.0759521,15.6348361,-99999.0,'11111222,11111222,99999999' 
TABS,ioos:station:wmo:42047:1,2014-07-02T08:00:00Z,27.8966,-93.5973,2.0,346.3376038,10.41470115,-99999.0,'11111222,11111222,99999999' 
TABS,ioos:station:wmo:42047:1,2014-07-02T08:30:00Z,27.8966,-93.5973,2.0,336.5150881,6.825393762,-99999.0,'11133222,11111222,99999999' 
TABS,ioos:station:wmo:42047:1,2014-07-02T09:00:00Z,27.8966,-93.5973,2.0,44.56050532,2.764868894,-99999.0,'11133222,11111222,99999999' 
TABS,ioos:station:wmo:42047:1,2014-07-02T09:30:00Z,27.8966,-93.5973,2.0,106.8583593,1.724093965,-99999.0,'11133222,11111222,99999999' 
TABS,ioos:station:wmo:42047:1,2014-07-02T10:00:00Z,27.8966,-93.5973,2.0,167.7227202,3.950341757,-99999.0,'11133222,11111222,99999999' 
TABS,ioos:station:wmo:42047:1,2014-07-02T10:30:00Z,27.8966,-93.5973,2.0,186.0087814,3.820994635,-99999.0,'11133222,11111222,99999999' 
TABS,ioos:station:wmo:42047:1,2014-07-02T11:00:00Z,27.8966,-93.5973,2.0,223.6204409,8.81310388,-99999.0,'11133222,11111222,99999999' 
TABS,ioos:station:wmo:42047:1,2014-07-02T11:30:00Z,27.8966,-93.5973,2.0,208.8193483,8.526019001,-99999.0,'11133222,11111222,99999999' 
TABS,ioos:station:wmo:42047:1,2014-07-02T12:00:00Z,27.8966,-93.5973,2.0,220.5409231,16.55397233,-99999.0,'11111222,11111222,99999999' 
TABS,ioos:station:wmo:42047:1,2014-07-02T12:30:00Z,27.8966,-93.5973,2.0,179.8093127,15.04008311,-99999.0,'11111222,11111222,99999999' 
TABS,ioos:station:wmo:42047:1,2014-07-02T13:00:00Z,27.8966,-93.5973,2.0,219.4014068,15.07671715,-99999.0,'11111222,11111222,99999999' 
TABS,ioos:station:wmo:42047:1,2014-07-02T13:30:00Z,27.8966,-93.5973,2.0,221.3455437,17.86247743,-99999.0,'11111222,11111222,99999999' 
TABS,ioos:station:wmo:42047:1,2014-07-02T14:00:00Z,27.8966,-93.5973,2.0,231.335971,23.0012717,-99999.0,'11111222,11111222,99999999' 
TABS,ioos:station:wmo:42047:1,2014-07-02T14:30:00Z,27.8966,-93.5973,2.0,228.2978196,22.98368334,-99999.0,'11111222,11111222,99999999' 
TABS,ioos:station:wmo:42047:1,2014-07-02T15:00:00Z,27.8966,-93.5973,2.0,195.0875643,23.12724151,-99999.0,'11111222,11111222,99999999' 
TABS,ioos:station:wmo:42047:1,2014-07-02T15:30:00Z,27.8966,-93.5973,2.0,198.333891,23.36610579,-99999.0,'11111222,11111222,99999999' 
TABS,ioos:station:wmo:42047:1,2014-07-02T16:00:00Z,27.8966,-93.5973,2.0,234.510019,27.73204644,-99999.0,'11111222,11111222,99999999' 
TABS,ioos:station:wmo:42047:1,2014-07-02T16:30:00Z,27.8966,-93.5973,2.0,231.7327862,28.46646097,-99999.0,'11111222,11111222,99999999' 
TABS,ioos:station:wmo:42047:1,2014-07-02T17:00:00Z,27.8966,-93.5973,2.0,224.3860251,29.04961273,-99999.0,'11111222,11111222,99999999' 
TABS,ioos:station:wmo:42047:1,2014-07-02T17:30:00Z,27.8966,-93.5973,2.0,230.3848182,29.23354238,-99999.0,'11111222,11111222,99999999' 
TABS,ioos:station:wmo:42047:1,2014-07-02T18:00:00Z,27.8966,-93.5973,2.0,248.2415607,29.45871688,-99999.0,'11111222,11111222,99999999' 
TABS,ioos:station:wmo:42047:1,2014-07-02T18:30:00Z,27.8966,-93.5973,2.0,254.9076124,28.95881904,-99999.0,'11111222,11111222,99999999' 
TABS,ioos:station:wmo:42047:1,2014-07-02T19:00:00Z,27.8966,-93.5973,2.0,260.3273466,29.16457612,-99999.0,'11111222,11111222,99999999' 
TABS,ioos:station:wmo:42047:1,2014-07-02T19:30:00Z,27.8966,-93.5973,2.0,268.2851193,29.41316712,-99999.0,'11111222,11111222,99999999' 
TABS,ioos:station:wmo:42047:1,2014-07-02T20:00:00Z,27.8966,-93.5973,2.0,271.4536985,28.38913172,-99999.0,'11111222,11111222,99999999' 
TABS,ioos:station:wmo:42047:1,2014-07-02T20:30:00Z,27.8966,-93.5973,2.0,276.1387727,27.588175,-99999.0,'11111222,11111222,99999999' 
TABS,ioos:station:wmo:42047:1,2014-07-02T21:00:00Z,27.8966,-93.5973,2.0,274.8350129,28.83258226,-99999.0,'11111222,11111222,99999999' 
TABS,ioos:station:wmo:42047:1,2014-07-02T21:30:00Z,27.8966,-93.5973,2.0,278.2060538,27.88548726,-99999.0,'11111222,11111222,99999999' 
TABS,ioos:station:wmo:42047:1,2014-07-02T22:00:00Z,27.8966,-93.5973,2.0,288.7243684,30.71559376,-99999.0,'11111222,11111222,99999999' 
TABS,ioos:station:wmo:42047:1,2014-07-02T22:30:00Z,27.8966,-93.5973,2.0,291.2900456,31.81088021,-99999.0,'11111222,11111222,99999999' 
TABS,ioos:station:wmo:42047:1,2014-07-02T23:00:00Z,27.8966,-93.5973,2.0,296.5742958,28.83633298,-99999.0,'11111222,11111222,99999999' 
TABS,ioos:station:wmo:42047:1,2014-07-02T23:30:00Z,27.8966,-93.5973,2.0,300.6192975,29.35251437,-99999.0,'11111222,11111222,99999999' 
TABS,ioos:station:wmo:42047:1,2014-07-03T00:00:00Z,27.8966,-93.5973,2.0,298.5465449,28.4597962,-99999.0,'11111222,11111222,99999999' 
TABS,ioos:station:wmo:42047:1,2014-07-03T00:30:00Z,27.8966,-93.5973,2.0,304.0637039,27.24467838,-99999.0,'11111222,11111222,99999999' 
TABS,ioos:station:wmo:42047:1,2014-07-03T01:00:00Z,27.8966,-93.5973,2.0,305.1185002,23.81512964,-99999.0,'11111222,11111222,99999999' 
TABS,ioos:station:wmo:42047:1,2014-07-03T01:30:00Z,27.8966,-93.5973,2.0,305.1576853,18.73836973,-99999.0,'11111222,11111222,99999999' 
TABS,ioos:station:wmo:42047:1,2014-07-03T02:00:00Z,27.8966,-93.5973,2.0,317.0859817,23.70378029,-99999.0,'11111222,11111222,99999999' 
TABS,ioos:station:wmo:42047:1,2014-07-03T02:30:00Z,27.8966,-93.5973,2.0,316.6023448,24.78671015,-99999.0,'11111222,11111222,99999999' 
TABS,ioos:station:wmo:42047:1,2014-07-03T03:00:00Z,27.8966,-93.5973,2.0,322.6909804,24.25271325,-99999.0,'11111222,11111222,99999999' 
TABS,ioos:station:wmo:42047:1,2014-07-03T03:30:00Z,27.8966,-93.5973,2.0,319.9265053,22.97390911,-99999.0,'11111222,11111222,99999999' 
TABS,ioos:station:wmo:42047:1,2014-07-03T04:00:00Z,27.8966,-93.5973,2.0,323.399278,23.8662628,-99999.0,'11111222,11111222,99999999' 
TABS,ioos:station:wmo:42047:1,2014-07-03T04:30:00Z,27.8966,-93.5973,2.0,327.5070319,21.90989046,-99999.0,'11111222,11111222,99999999' 
TABS,ioos:station:wmo:42047:1,2014-07-03T05:00:00Z,27.8966,-93.5973,2.0,324.8882814,21.12394139,-99999.0,'11111222,11111222,99999999' 
TABS,ioos:station:wmo:42047:1,2014-07-03T05:30:00Z,27.8966,-93.5973,2.0,334.4160431,20.3780372,-99999.0,'11111222,11111222,99999999' 
TABS,ioos:station:wmo:42047:1,2014-07-03T06:00:00Z,27.8966,-93.5973,2.0,325.512533,21.3164209,-99999.0,'11111222,11111222,99999999' 
TABS,ioos:station:wmo:42047:1,2014-07-03T06:30:00Z,27.8966,-93.5973,2.0,318.3834131,20.01063967,-99999.0,'11111222,11111222,99999999' 
TABS,ioos:station:wmo:42047:1,2014-07-03T07:00:00Z,27.8966,-93.5973,2.0,316.5688078,19.37491419,-99999.0,'11111222,11111222,99999999' 
TABS,ioos:station:wmo:42047:1,2014-07-03T07:30:00Z,27.8966,-93.5973,2.0,320.6320953,20.46345034,-99999.0,'11111222,11111222,99999999' 
TABS,ioos:station:wmo:42047:1,2014-07-03T08:00:00Z,27.8966,-93.5973,2.0,316.3476887,18.6444898,-99999.0,'11111222,11111222,99999999' 
TABS,ioos:station:wmo:42047:1,2014-07-03T08:30:00Z,27.8966,-93.5973,2.0,314.7366873,18.44154007,-99999.0,'11111222,11111222,99999999' 
TABS,ioos:station:wmo:42047:1,2014-07-03T09:00:00Z,27.8966,-93.5973,2.0,312.1695524,19.18600532,-99999.0,'11111222,11111222,99999999' 
TABS,ioos:station:wmo:42047:1,2014-07-03T09:30:00Z,27.8966,-93.5973,2.0,317.6931337,19.5660369,-99999.0,'11111222,11111222,99999999' 
TABS,ioos:station:wmo:42047:1,2014-07-03T10:00:00Z,27.8966,-93.5973,2.0,318.2953276,19.31473272,-99999.0,'11111222,11111222,99999999' 
TABS,ioos:station:wmo:42047:1,2014-07-03T10:30:00Z,27.8966,-93.5973,2.0,315.7351041,19.29853103,-99999.0,'11111222,11111222,99999999' 
TABS,ioos:station:wmo:42047:1,2014-07-03T11:00:00Z,27.8966,-93.5973,2.0,322.9690706,19.17807602,-99999.0,'11111222,11111222,99999999' 
TABS,ioos:station:wmo:42047:1,2014-07-03T11:30:00Z,27.8966,-93.5973,2.0,314.5618372,16.63163852,-99999.0,'11111222,11111222,99999999' 
TABS,ioos:station:wmo:42047:1,2014-07-03T12:00:00Z,27.8966,-93.5973,2.0,319.2663148,19.20165097,-99999.0,'11111222,11111222,99999999' 
TABS,ioos:station:wmo:42047:1,2014-07-03T12:30:00Z,27.8966,-93.5973,2.0,316.8766044,20.94866344,-99999.0,'11111222,11111222,99999999' 
TABS,ioos:station:wmo:42047:1,2014-07-03T13:00:00Z,27.8966,-93.5973,2.0,311.8359163,23.31350253,-99999.0,'11111222,11111222,99999999' 
TABS,ioos:station:wmo:42047:1,2014-07-03T13:30:00Z,27.8966,-93.5973,2.0,251.5005945,19.79270825,-99999.0,'11111222,11111222,99999999' 
TABS,ioos:station:wmo:42047:1,2014-07-03T14:00:00Z,27.8966,-93.5973,2.0,216.1665537,20.5375461,-99999.0,'11111222,11111222,99999999' 
TABS,ioos:station:wmo:42047:1,2014-07-03T14:30:00Z,27.8966,-93.5973,2.0,214.0292035,23.40875904,-99999.0,'11111222,11111222,99999999' 
TABS,ioos:station:wmo:42047:1,2014-07-03T15:00:00Z,27.8966,-93.5973,2.0,203.0327496,24.5360225,-99999.0,'11111222,11111222,99999999' 
TABS,ioos:station:wmo:42047:1,2014-07-03T15:30:00Z,27.8966,-93.5973,2.0,202.0620804,23.24186955,-99999.0,'11111222,11111222,99999999' 
TABS,ioos:station:wmo:42047:1,2014-07-03T16:00:00Z,27.8966,-93.5973,2.0,205.1553475,23.4545049,-99999.0,'11111222,11111222,99999999' 
TABS,ioos:station:wmo:42047:1,2014-07-03T16:30:00Z,27.8966,-93.5973,2.0,205.2807305,26.34302374,-99999.0,'11111222,11111222,99999999' 
TABS,ioos:station:wmo:42047:1,2014-07-03T17:00:00Z,27.8966,-93.5973,2.0,211.3450965,26.77838307,-99999.0,'11111222,11111222,99999999' 
TABS,ioos:station:wmo:42047:1,2014-07-03T17:30:00Z,27.8966,-93.5973,2.0,215.0569708,26.61932005,-99999.0,'11111222,11111222,99999999' 
TABS,ioos:station:wmo:42047:1,2014-07-03T18:00:00Z,27.8966,-93.5973,2.0,223.0550773,28.54819959,-99999.0,'11111222,11111222,99999999' 
TABS,ioos:station:wmo:42047:1,2014-07-03T18:30:00Z,27.8966,-93.5973,2.0,230.4321321,29.278446,-99999.0,'11111222,11111222,99999999' 
TABS,ioos:station:wmo:42047:1,2014-07-03T19:00:00Z,27.8966,-93.5973,2.0,229.7351763,29.89244888,-99999.0,'11111222,11111222,99999999' 
TABS,ioos:station:wmo:42047:1,2014-07-03T19:30:00Z,27.8966,-93.5973,2.0,242.1637628,31.05320595,-99999.0,'11111222,11111222,99999999' 
TABS,ioos:station:wmo:42047:1,2014-07-03T20:00:00Z,27.8966,-93.5973,2.0,250.7589892,32.83401285,-99999.0,'11111222,11111222,99999999' 
TABS,ioos:station:wmo:42047:1,2014-07-03T20:30:00Z,27.8966,-93.5973,2.0,257.6503136,34.27301125,-99999.0,'11111222,11111222,99999999' 
TABS,ioos:station:wmo:42047:1,2014-07-03T21:00:00Z,27.8966,-93.5973,2.0,270.812849,36.67368675,-99999.0,'11111222,11111222,99999999' 
TABS,ioos:station:wmo:42047:1,2014-07-03T21:30:00Z,27.8966,-93.5973,2.0,283.2390729,35.71925671,-99999.0,'11111222,11111222,99999999' 
TABS,ioos:station:wmo:42047:1,2014-07-03T22:00:00Z,27.8966,-93.5973,2.0,285.0654738,37.55056857,-99999.0,'11111222,11111222,99999999' 
TABS,ioos:station:wmo:42047:1,2014-07-03T22:30:00Z,27.8966,-93.5973,2.0,291.6302703,37.22094034,-99999.0,'11111222,11111222,99999999' 
TABS,ioos:station:wmo:42047:1,2014-07-03T23:00:00Z,27.8966,-93.5973,2.0,298.001698,41.21473766,-99999.0,'11111222,11111222,99999999' 
TABS,ioos:station:wmo:42047:1,2014-07-03T23:30:00Z,27.8966,-93.5973,2.0,299.6563319,37.57140668,-99999.0,'11111222,11111222,99999999' 
TABS,ioos:station:wmo:42047:1,2014-07-04T00:00:00Z,27.8966,-93.5973,2.0,306.1585218,43.79537875,-99999.0,'11111222,11111222,99999999' 
TABS,ioos:station:wmo:42047:1,2014-07-04T00:30:00Z,27.8966,-93.5973,2.0,308.813969,43.04476739,-99999.0,'11111222,11111222,99999999' 
TABS,ioos:station:wmo:42047:1,2014-07-04T01:00:00Z,27.8966,-93.5973,2.0,314.2965201,42.59932629,-99999.0,'11111222,11111222,99999999' 
TABS,ioos:station:wmo:42047:1,2014-07-04T01:30:00Z,27.8966,-93.5973,2.0,319.9411347,37.027348,-99999.0,'11111222,11111222,99999999' 
TABS,ioos:station:wmo:42047:1,2014-07-04T02:00:00Z,27.8966,-93.5973,2.0,324.5474387,43.1872076,-99999.0,'11111222,11111222,99999999' 
TABS,ioos:station:wmo:42047:1,2014-07-04T02:30:00Z,27.8966,-93.5973,2.0,330.7194578,46.2491081,-99999.0,'11111222,11111222,99999999' 
TABS,ioos:station:wmo:42047:1,2014-07-04T03:00:00Z,27.8966,-93.5973,2.0,337.8492896,38.35051499,-99999.0,'11111222,11111222,99999999' 
TABS,ioos:station:wmo:42047:1,2014-07-04T03:30:00Z,27.8966,-93.5973,2.0,335.555176,41.70885398,-99999.0,'11111222,11111222,99999999' 
TABS,ioos:station:wmo:42047:1,2014-07-04T04:00:00Z,27.8966,-93.5973,2.0,335.4721327,36.61415164,-99999.0,'11111222,11111222,99999999' 
TABS,ioos:station:wmo:42047:1,2014-07-04T04:30:00Z,27.8966,-93.5973,2.0,336.9329491,37.82423033,-99999.0,'11111222,11111222,99999999' 
TABS,ioos:station:wmo:42047:1,2014-07-04T05:00:00Z,27.8966,-93.5973,2.0,326.2061302,35.11258037,-99999.0,'11111222,11111222,99999999' 
TABS,ioos:station:wmo:42047:1,2014-07-04T05:30:00Z,27.8966,-93.5973,2.0,335.4321457,31.31502515,-99999.0,'11111222,11111222,99999999' 
TABS,ioos:station:wmo:42047:1,2014-07-04T06:00:00Z,27.8966,-93.5973,2.0,343.1523829,34.7098257,-99999.0,'11111222,11111222,99999999' 
TABS,ioos:station:wmo:42047:1,2014-07-04T06:30:00Z,27.8966,-93.5973,2.0,342.048898,31.47210829,-99999.0,'11111222,11111222,99999999' 
TABS,ioos:station:wmo:42047:1,2014-07-04T07:00:00Z,27.8966,-93.5973,2.0,348.3142411,28.68456379,-99999.0,'11111222,11111222,99999999' 
TABS,ioos:station:wmo:42047:1,2014-07-04T07:30:00Z,27.8966,-93.5973,2.0,345.0867499,20.59368835,-99999.0,'11111222,11111222,99999999' 
TABS,ioos:station:wmo:42047:1,2014-07-04T08:00:00Z,27.8966,-93.5973,2.0,336.1125123,17.90361416,-99999.0,'11111222,11111222,99999999' 
TABS,ioos:station:wmo:42047:1,2014-07-04T08:30:00Z,27.8966,-93.5973,2.0,321.1049863,13.29830816,-99999.0,'11111222,11111222,99999999' 
TABS,ioos:station:wmo:42047:1,2014-07-04T09:00:00Z,27.8966,-93.5973,2.0,307.0238771,8.204029498,-99999.0,'11133222,11111222,99999999' 
TABS,ioos:station:wmo:42047:1,2014-07-04T09:30:00Z,27.8966,-93.5973,2.0,306.6852094,3.716019376,-99999.0,'11133222,11111222,99999999' 
TABS,ioos:station:wmo:42047:1,2014-07-04T10:00:00Z,27.8966,-93.5973,2.0,251.8255015,2.083962572,-99999.0,'11133222,11111222,99999999' 
TABS,ioos:station:wmo:42047:1,2014-07-04T10:30:00Z,27.8966,-93.5973,2.0,256.9593933,3.767147462,-99999.0,'11133222,11111222,99999999' 
TABS,ioos:station:wmo:42047:1,2014-07-04T11:00:00Z,27.8966,-93.5973,2.0,280.7594243,5.303225434,-99999.0,'11133222,11111222,99999999' 
TABS,ioos:station:wmo:42047:1,2014-07-04T11:30:00Z,27.8966,-93.5973,2.0,268.1677202,4.692398108,-99999.0,'11133222,11111222,99999999' 
TABS,ioos:station:wmo:42047:1,2014-07-04T12:00:00Z,27.8966,-93.5973,2.0,261.4109366,6.361336338,-99999.0,'11133222,11111222,99999999' 
TABS,ioos:station:wmo:42047:1,2014-07-04T12:30:00Z,27.8966,-93.5973,2.0,247.4326228,7.504618578,-99999.0,'11133222,11111222,99999999' 
TABS,ioos:station:wmo:42047:1,2014-07-04T13:00:00Z,27.8966,-93.5973,2.0,252.1111006,8.9528152,-99999.0,'11133222,11111222,99999999' 
TABS,ioos:station:wmo:42047:1,2014-07-04T13:30:00Z,27.8966,-93.5973,2.0,218.3044714,11.34155633,-99999.0,'11111222,11111222,99999999' 
TABS,ioos:station:wmo:42047:1,2014-07-04T14:00:00Z,27.8966,-93.5973,2.0,238.2982235,12.78799437,-99999.0,'11111222,11111222,99999999' 
TABS,ioos:station:wmo:42047:1,2014-07-04T14:30:00Z,27.8966,-93.5973,2.0,241.1853561,14.35767391,-99999.0,'11111222,11111222,99999999' 
TABS,ioos:station:wmo:42047:1,2014-07-04T15:00:00Z,27.8966,-93.5973,2.0,250.1453492,15.95858703,-99999.0,'11111222,11111222,99999999' 
TABS,ioos:station:wmo:42047:1,2014-07-04T15:30:00Z,27.8966,-93.5973,2.0,240.5001823,15.63720244,-99999.0,'11111222,11111222,99999999' 
TABS,ioos:station:wmo:42047:1,2014-07-04T16:00:00Z,27.8966,-93.5973,2.0,255.8834675,20.87021083,-99999.0,'11111222,11111222,99999999' 